Regional Weather Roundup
Issued by NWS

Home | Current Version | Previous Version | Graphics & Text | Print | Product List | Glossary On
Versions: 1 2 3 4 5 6 7 8 9 10 11 12 13 14 15 16 17 18 19 20 21 22 23 24 25 26 27 28 29 30 31 32 33 34 35 36 37 38 39 40 41 42 43 44 45 46 47 48 49 50
000
ASUS45 KABQ 261910
RWRNM
WEATHER ROUNDUP FOR NEW MEXICO
NATIONAL WEATHER SERVICE ALBUQUERQUE NM
1200 PM MST FRI DEC 26 2014

NOTE: "FAIR" MEANS FEW OR NO CLOUDS BELOW 12,000 FEET AGL WITH NO
       SIGNIFICANT WEATHER OR OBSTRUCTIONS TO VISION.

      THIS PRODUCT IS RELEASED AS TWO VERSIONS.  ONE VERSION NEAR
      THE TOP OF THE HOUR CONTAINING PRELIMINARY DATA FROM ALBUQUERQUE
      AND OTHER STATIONS.  A FINAL VERSION WITH ADDITIONAL DATA IS
      ISSUED ABOUT 10 MINUTES AFTER THE HOUR.

NMZ501-503-504-510>518-262000-
NORTHWEST PLATEAU/NORTHCENTRAL MOUNTAINS

CITY           SKY/WX    TMP DP  RH WIND       PRES   REMARKS
FARMINGTON     FAIR      27  21  78 W13       29.81S WCI  16
LOS ALAMOS     FAIR      28  12  51 S16G23    29.76S WCI  16
SANTA FE       PTSUNNY   30  18  60 SW14G22   29.79F WCI  19
TAOS           CLOUDY    25  16  68 SW20G26   29.73F WCI  11
ANGEL FIRE     LGT SNOW  19  15  86 CALM      29.72S VSB 3/4

$$
NMZ402-403-502-505>509-262000-
WESTCENTRAL MOUNTAINS/SOUTHWEST MOUNTAINS

CITY           SKY/WX    TMP DP  RH WIND       PRES   REMARKS
GALLUP         FAIR      22  16  78 SW15      29.85F WCI   9
GRANTS         FAIR      27  16  64 W14G24    29.85F WCI  15
SILVER CITY    FAIR      37   7  28 NW25G33   29.91S WCI  26

$$
NMZ407-409-411-412-262000-
SOUTHERN DESERTS

CITY           SKY/WX    TMP DP  RH WIND       PRES   REMARKS
LORDSBURG      FAIR      41  18  38 W16G22    29.95F
DEMING         CLOUDY    41  24  51 SW8       29.93F
LAS CRUCES     CLOUDY    38  29  71 SW12      29.94F WCI  30
HOLLOMAN AFB   PTSUNNY   41  35  79 S14       29.89F
ALAMOGORDO     CLOUDY    39  34  81 S17       29.91F WCI  30
T OR C         FAIR      45  -7  11 W21G31    29.85F

$$
NMZ519>523-262000-
CENTRAL VALLEYS/CENTRAL HIGHLANDS

CITY           SKY/WX    TMP DP  RH WIND       PRES   REMARKS
ALBUQUERQUE    FAIR      35  15  44 SW20G25   29.86F WCI  24
DOUBLE EAGLE   MOSUNNY   32   9  37 SW25G32   29.83F WCI  19
MORIARTY ARPT  FAIR      30  15  52 SW14G25   29.84S WCI  20
CLINES CORNERS FLURRIES  25  17  72 W20       29.77F WCI  11
BELEN          FAIR      36  12  37 W22G29    29.87F WCI  24
SOCORRO        FAIR      41   6  23 E8        29.86F

$$
NMZ524>526-539-540-262000-
SOUTHCENTRAL MOUNTAINS

CITY           SKY/WX    TMP DP  RH WIND       PRES   REMARKS
RUIDOSO        PTSUNNY   32  19  59 NW16G25   29.82F WCI  21

$$
NMZ527>531-262000-
NORTHEAST HIGHLANDS/NORTHEAST PLAINS

CITY           SKY/WX    TMP DP  RH WIND       PRES   REMARKS
LAS VEGAS      FLURRIES  24  21  88 SE13      29.77F WCI  12
RATON          LGT SNOW  23  16  74 NE13      29.79F VSB 1   WCI  11
CLAYTON        CLOUDY    26  19  74 NE16      29.85F WCI  14

$$
NMZ532>537-262000-
EASTCENTRAL PLAINS

CITY           SKY/WX    TMP DP  RH WIND       PRES   REMARKS
TUCUMCARI      LGT SNOW  30  26  85 E14       29.88F FOG     WCI  19
CANNON AFB     PTSUNNY   36  27  70 N6        29.85F WCI  31
CLOVIS AIRPORT FAIR      37  27  65 N6        29.84F WCI  33

$$
NMZ028-029-538-262000-
SOUTHEAST PLAINS

CITY           SKY/WX    TMP DP  RH WIND       PRES   REMARKS
ROSWELL        CLOUDY    50  35  56 S15       29.84F
ARTESIA        FAIR      45  37  76 S17       29.88F
CARLSBAD       PTSUNNY   51  35  54 W23       29.87F
HOBBS          PTSUNNY   54  32  43 W22G28    29.87F


$$


USA.gov is the U.S. government's official web portal to all federal, state and local government web resources and services.